Miscellaneous Local Product
Issued by NWS Hastings, NE

Home | Current Version | Previous Version | Graphics & Text | Print | Product List | Glossary On
Versions: 1 2 3 4 5 6 7 8 9 10 11 12 13 14 15 16 17 18 19 20 21 22 23 24 25 26 27 28 29 30 31 32 33 34 35 36 37 38 39 40 41 42 43 44 45 46 47 48 49 50
000
AXUS43 KGID 240802
MISGRI

GID CWA HOURLY WEATHER ROUNDUP
NATIONAL WEATHER SERVICE HASTINGS NE
300 AM CDT SAT SEP 24 2016

NOTE: "FAIR" INDICATES FEW OR NO CLOUDS BELOW 12,000 FEET WITH NO
SIGNIFICANT WEATHER AND/OR OBSTRUCTIONS TO VISIBILITY.

...SOUTH CENTRAL NEBRASKA...

CITY           SKY/WX    TMP DP  RH WIND       PRES   REMARKS
GRAND ISLAND   CLEAR     71  63  75 SE14      29.88F
HASTINGS       CLEAR     72  63  73 SE12      29.89F
KEARNEY        PTCLDY    72  63  73 SE16      29.84F
ORD            LGT RAIN  72  62  71 SE17G24   29.83F
YORK           MOCLDY    72  63  73 S13       29.92F
AURORA         MOCLDY    71  64  78 SE13      29.90F
LEXINGTON      MOCLDY    72  63  73 S16       29.83S
HOLDREGE       PTCLDY    71  63  75 S14G22    29.85S
HEBRON         MOCLDY    72  64  74 SE10      29.92F

...NEBRASKA PANHANDLE...

CITY           SKY/WX    TMP DP  RH WIND       PRES   REMARKS
CHADRON        CLOUDY    51  46  83 SW9       29.86S
ALLIANCE       CLOUDY    49  45  86 NW12      29.84F
SCOTTSBLUFF    CLOUDY    50  49  96 W10       29.91F
SIDNEY         LGT RAIN  49  46  90 W17G24    29.95R

...WESTERN AND NORTH CENTRAL NEBRASKA...

CITY           SKY/WX    TMP DP  RH WIND       PRES   REMARKS
VALENTINE      PTCLDY    57  50  77 W7        29.84R
AINSWORTH      CLEAR     70  62  74 S18G25    29.80R
ONEILL         CLEAR     72  62  70 SE16G25   29.85F
BROKEN BOW     CLEAR     68  62  81 SE10      29.84S
IMPERIAL       CLOUDY    58  50  75 N13       29.84S
NORTH PLATTE   CLOUDY    68  63  84 SE8       29.80F
MCCOOK         PTCLDY    73  56  54 SW15      29.82R

...EASTERN NEBRASKA...

CITY           SKY/WX    TMP DP  RH WIND       PRES   REMARKS
NORFOLK        PTCLDY    71  62  73 SE14      29.91F
SO SIOUX CITY  MOCLDY    68  64  87 SE8       29.94F
TEKAMAH        MOCLDY    69  64  84 SE6       29.95S
COLUMBUS       MOCLDY   N/A N/A N/A SE12      29.92S
ALBION         PTCLDY    72  62  70 SE13G18   29.89F
OMAHA EPPLEY   PTCLDY    73  64  73 SE10      29.96S
OFFUTT AFB     CLEAR     70  65  84 SE6       29.96S
MILLARD        PTCLDY    72  65  78 SE5       29.96S
LINCOLN        PTCLDY    73  64  73 S15       29.94S
NEBRASKA CITY  CLEAR     69  59  70 SE6       29.98S
BEATRICE       CLEAR     73  64  73 SE10      29.95S
FALLS CITY     PTCLDY    71  65  81 SE7       29.97S

...NORTHERN KANSAS...

CITY           SKY/WX    TMP DP  RH WIND       PRES   REMARKS
GOODLAND       PTCLDY    58  42  55 SW16      29.89R
HILL CITY      PTCLDY    75  67  76 S16G23    29.84F
NORTON         PTSUNNY   73  63  68 S13G18    29.84S
PHILLIPSBURG   CLEAR     72  64  78 SE8       29.85F
SMITH CENTER   CLEAR     70  64  83 SE15G21   29.87F
HAYS           PTCLDY    73  61  64 S15G21    29.87S
CONCORDIA      PTCLDY    71  66  84 SE12      29.91F
SALINA         CLEAR     73  67  81 SE10      29.92S
TOPEKA         CLEAR     73  64  73 SE9       29.98S



USA.gov is the U.S. government's official web portal to all federal, state and local government web resources and services.